This demonstration page uses our WeatherBlox Daily Observations layout. Learn more.

Left ArrowRight Arrow

39.51506, -84.39828

Hourly Observations for April 19, 2017

Temp ( °F °C ) Dew Point ( °F °C ) Humidity (%) Winds ( mph kmh ) Pressure ( in mb ) Visibility ( mi km ) Precip ( " mm )
12:15 am 00:15 Mostly Cloudy 69 20.8 55 12.6 60 60 S 10 17 30.09 1019 10 16 0.00 0.00
12:35 am 00:35 Cloudy 69 20.8 56 13.5 63 63 S 10 17 30.12 1020 10 16 0.00 0.00
12:55 am 00:55 Cloudy 69 20.8 57 13.9 65 65 S 8 13 30.12 1020 10 16 0.00 0.00
1:15 am 01:15 Cloudy 69 20.8 58 14.3 66 66 S 9 15 30.12 1020 10 16 0.00 0.00
1:35 am 01:35 Cloudy 69 20.8 58 14.6 68 68 S 8 13 30.12 1020 10 16 0.00 0.00
1:55 am 01:55 Mostly Cloudy 69 20.8 59 14.9 69 69 S 10 17 30.12 1020 10 16 0.00 0.00
2:15 am 02:15 Partly Cloudy 69 20.8 59 15.2 70 70 S 12 19 30.09 1019 10 16 0.00 0.00
2:35 am 02:35 Mostly Cloudy 69 20.8 60 15.6 72 72 S 9 15 30.09 1019 10 16 0.00 0.00
2:55 am 02:55 Partly Cloudy 69 20.6 60 15.6 73 73 S 9 15 30.09 1019 10 16 0.00 0.00
3:15 am 03:15 Mostly Cloudy 68 20.1 60 15.3 74 74 S 8 13 30.09 1019 10 16 0.00 0.00
3:35 am 03:35 Mostly Cloudy 67 19.5 59 15 75 75 S 7 11 30.09 1019 10 16 0.00 0.00
3:55 am 03:55 Cloudy 67 19.5 59 15 75 75 S 7 11 30.09 1019 10 16 0.00 0.00
4:15 am 04:15 Cloudy 67 19.5 59 15.1 76 76 S 7 11 30.09 1019 10 16 0.00 0.00
4:35 am 04:35 Cloudy 67 19.5 59 15.1 76 76 S 6 9 30.09 1019 10 16 0.00 0.00
4:55 am 04:55 Cloudy 67 19.5 59 15.1 76 76 S 7 11 30.09 1019 10 16 0.00 0.00
5:15 am 05:15 Cloudy 67 19.5 59 15.1 76 76 S 7 11 30.09 1019 10 16 0.00 0.00
5:35 am 05:35 Cloudy 67 19.3 59 15 76 76 S 9 15 30.09 1019 10 16 0.00 0.00
5:55 am 05:55 Cloudy 67 19.3 59 15.1 77 77 S 7 11 30.09 1019 10 16 0.00 0.00
6:15 am 06:15 Cloudy 67 19.4 59 15.1 76 76 S 8 13 30.09 1019 10 16 0.00 0.00
6:35 am 06:35 Cloudy 65 18.1 57 14 77 77 S 7 11 30.09 1019 10 16 0.00 0.00
6:55 am 06:55 Cloudy 64 18 57 14 78 78 S 6 9 30.09 1019 10 16 0.00 0.00
7:15 am 07:15 Cloudy 64 18 57 14 78 78 S 7 11 30.12 1020 10 16 0.00 0.00
7:35 am 07:35 Cloudy 64 18 57 14 78 78 S 7 11 30.12 1020 10 16 0.00 0.00
7:55 am 07:55 Cloudy 66 19.1 59 15.1 78 78 S 7 11 30.12 1020 10 16 0.00 0.00
8:15 am 08:15 Cloudy 67 19.5 60 15.4 77 77 SSW 6 9 30.12 1020 10 16 0.00 0.00
8:35 am 08:35 Cloudy 67 19.5 60 15.5 78 78 SSW 5 7 30.12 1020 10 16 0.00 0.00
8:55 am 08:55 Cloudy 69 20.7 62 16.5 77 77 S 7 11 30.12 1020 10 16 0.00 0.00
9:15 am 09:15 Cloudy 69 20.8 62 16.5 77 77 SSW 8 13 30.12 1020 10 16 0.00 0.00
9:35 am 09:35 Cloudy 69 20.8 62 16.5 77 77 SSW 8 13 30.12 1020 10 16 0.00 0.00
9:55 am 09:55 Cloudy 69 20.8 62 16.5 77 77 SSW 9 15 30.12 1020 10 16 0.00 0.00
10:15 am 10:15 Cloudy 69 20.8 62 16.5 77 77 SSW 8 13 30.12 1020 10 16 0.00 0.00
10:35 am 10:35 Cloudy 69 20.8 61 15.9 74 74 SSE 8 13 30.12 1020 10 16 0.00 0.00
10:55 am 10:55 Cloudy 71 21.6 60 15.6 69 69 S 14 22 30.12 1020 10 16 0.00 0.00
11:15 am 11:15 Cloudy 70 21.2 60 15.7 71 71 SSW 8 13 30.12 1020 10 16 0.00 0.00
11:35 am 11:35 Cloudy 71 21.5 60 15.4 68 68 SSW 10 17 30.12 1020 10 16 0.00 0.00
11:55 am 11:55 Cloudy 74 23.6 63 17.1 67 67 SSW 9 15 30.12 1020 10 16 0.00 0.00
12:15 pm 12:15 Cloudy 74 23.6 62 16.9 66 66 SSW 9 15 30.12 1020 10 16 0.00 0.00
12:35 pm 12:35 Cloudy 74 23.6 62 16.4 64 64 SW 10 17 30.12 1020 10 16 0.00 0.00
12:55 pm 12:55 Mostly Cloudy 74 23.6 60 15.4 60 60 SSW 10 17 30.12 1020 10 16 0.00 0.00
1:15 pm 13:15 Mostly Cloudy 76 24.2 60 15.8 60 60 S 13 20 30.09 1019 10 16 0.00 0.00
1:35 pm 13:35 Mostly Cloudy 77 25.1 60 15.7 56 56 SSW 12 19 30.09 1019 10 16 0.00 0.00
1:55 pm 13:55 Mostly Cloudy 76 24.7 59 15.2 56 56 SSW 14 22 30.09 1019 10 16 0.00 0.00
2:15 pm 14:15 Mostly Cloudy 77 25.1 59 15 54 54 S 13 20 30.09 1019 10 16 0.00 0.00
2:35 pm 14:35 Mostly Cloudy 77 25.1 58 14.3 51 51 SSW 14 22 30.09 1019 10 16 0.00 0.00
2:55 pm 14:55 Mostly Cloudy 77 25.1 56 13.4 48 48 SW 14 22 30.09 1019 10 16 0.00 0.00
3:15 pm 15:15 Partly Cloudy 79 26.1 56 13.2 45 45 SW 12 19 30.09 1019 10 16 0.00 0.00
3:35 pm 15:35 Sunny 80 26.5 55 12.6 42 42 SW 12 19 30.06 1018 10 16 0.00 0.00
3:55 pm 15:55 Sunny 80 26.5 55 12.5 42 42 WSW 13 20 30.06 1018 10 16 0.00 0.00
4:15 pm 16:15 Sunny 80 26.5 54 12.2 41 41 SW 12 19 30.06 1018 10 16 0.00 0.00
4:35 pm 16:35 Partly Cloudy 80 26.5 53 11.8 40 40 WSW 9 15 30.06 1018 10 16 0.00 0.00
4:55 pm 16:55 Sunny 81 27.2 54 12.3 40 40 WSW 12 19 30.03 1017 10 16 0.00 0.00
5:15 pm 17:15 Partly Cloudy 80 26.5 53 11.9 40 40 SSW 8 13 30.03 1017 10 16 0.00 0.00
5:35 pm 17:35 Partly Cloudy 80 26.5 52 11.3 39 39 SW 7 11 30.03 1017 10 16 0.00 0.00
5:55 pm 17:55 Partly Cloudy 80 26.5 55 12.6 42 42 SW 13 20 30.03 1017 10 16 0.00 0.00
6:35 pm 18:35 Partly Cloudy 80 26.4 55 12.8 43 43 SSW 9 15 30.06 1018 10 16 0.00 0.00
6:55 pm 18:55 Sunny 77 25.1 55 12.7 46 46 SSW 8 13 30.06 1018 10 16 0.00 0.00
7:15 pm 19:15 Sunny 77 25.1 58 14.2 51 51 SW 5 7 30.06 1018 10 16 0.00 0.00
7:35 pm 19:35 Sunny 77 25.1 58 14.2 51 51 Calm 30.06 1018 10 16 0.00 0.00
7:55 pm 19:55 Sunny 76 24.5 57 14.1 52 52 Calm 30.06 1018 10 16 0.00 0.00
8:15 pm 20:15 Sunny 74 23.6 59 15.1 59 59 Calm 30.06 1018 10 16 0.00 0.00
8:35 pm 20:35 Clear 70 21.3 60 15.5 70 70 Calm 30.06 1018 10 16 0.00 0.00
8:55 pm 20:55 Clear 69 20.8 60 15.3 71 71 Calm 30.06 1018 10 16 0.00 0.00
9:15 pm 21:15 Clear 69 20.8 62 16.4 76 76 Calm 30.06 1018 10 16 0.00 0.00
9:35 pm 21:35 Clear 69 20.8 62 16.4 76 76 Calm 30.06 1018 10 16 0.00 0.00
9:55 pm 21:55 Clear 68 20.2 60 15.7 75 75 Calm 30.06 1018 10 16 0.00 0.00
10:15 pm 22:15 Clear 69 20.6 61 15.9 75 75 Calm 30.06 1018 10 16 0.00 0.00
10:35 pm 22:35 Clear 64 18 58 14.3 79 79 Calm 30.06 1018 10 16 0.00 0.00
10:55 pm 22:55 Clear 64 17.9 58 14.2 79 79 Calm 30.06 1018 10 16 0.00 0.00
11:15 pm 23:15 Clear 64 18 58 14.3 79 79 Calm 30.06 1018 10 16 0.00 0.00
11:35 pm 23:35 Clear 64 17.5 57 13.9 80 80 Calm 30.06 1018 10 16 0.00 0.00
11:55 pm 23:55 Clear 62 16.8 56 13.3 80 80 Calm 30.06 1018 10 16 0.00 0.00

Powered by AerisWeather